User: anonymous   Login
Location: Hopkins Observatory
(42.6965°N, 73.1843°W)
Time: 17:20:35
(UTC-05:00)
Language:

UOSAT-12 - Orbit

View from above orbital plane
View from above orbital plane
View from above satellite
View from above satellite

Ground track
Ground track

The orbit data is extracted from the following two-line orbital elements,

1 25693U 99021A   14353.56969366  .00000965  00000-0  14315-3 0  6952
2 25693 064.5572 051.4963 0049275 264.3994 200.2961 14.80218272845358
Epoch (UTC): 19 December 2014 13:40:21
Eccentricity: 0.0049275
inclination: 64.5572°
perigee height: 594 km
apogee height: 663 km
right ascension of ascending node: 51.4963°
argument of perigee: 264.3994°
revolutions per day: 14.80218272
mean anomaly at epoch: 200.2961°
orbit number at epoch: 84535

The dashed part of the orbit path shows where the satellite is in the earth's shadow,  

DLR